www.pogodaiklimat.ru

Погода и климат >> Архив погоды >> Мадагаскар >> Анцухихи


ПОГОДА в Анцухихи

  • Прогноз погоды в Анцухихи
  • Монитор погоды в Анцухихи

АРХИВ ПОГОДЫ в Анцухихи

Время (UTC), дата Ветер
(напр.,м/с)
 
Видим.   Явления Облачность Т
(С)
Тd
(С)
f
(%)
Тe
(С)
Тes
(С)
Комфортность P
(гПа)
Po
(гПа)
Тmin
(С)
Tmax
(С)
R
(мм)
R24
(мм)
S
(см)
03 19.06 ЮВ 2 30 км 1/1 600 м
[Cu Sc]
+17.4 +15.2 87 +18 +18 1017.5 1014.8
06 19.06 Ю 4 40 км 1/1 600 м
[Cu Sc Ci sp]
+26.4 +15.6 51 +29 +33 жарко 1018.6 1015.9 +18.8 +30.8
09 19.06 ЮЗ 5 40 км 3/1 600 м
[Cu Sc Ci sp]
+30.2 +16.3 43 +33 +39 душно 1017.2 1014.5
12 19.06 ЮЗ 5 40 км 6/6 600 м
[Cu Sc]
+32.4 +15.4 36 +35 +36 душно 1015.4 1012.7
15 19.06 Ю 4 30 км 6/6 600 м
[Cu Sc]
+26.5 +16.4 54 +30 +30 душно 1016.2 1013.5 +32.4
03 20.06 ЮВ 2 30 км 5/1 600 м
[Cu Sc Cs]
+17.8 +14.6 82 +18 +18 1016.4 1013.7
06 20.06 Ю 4 40 км 6/3 600 м
[Cu Sc Ci sp]
+27.2 +15.2 48 +22 +25 комфорт 1017.4 1014.7 +20.3 +32.4
09 20.06 ЮЗ 5 40 км 8/3 600 м
[Cu Sc Ci sp]
+31.2 +15.8 39 +34 +38 душно 1016.2 1013.5
12 20.06 ЮЗ 6 40 км 6/4 600 м
[Cu Sc Ci sp]
+32.6 +14.6 34 +34 +35 очень
жарко
1014.4 1011.7
15 20.06 В 4 30 км 6/4 600 м
[Cu Sc Ci sp]
+27.8 +17.2 52 +32 +32 душно 1015.0 1012.3 +32.6
03 21.06 Ю 3 30 км осадки на расстоянии 9/9 600 м
[Cu Sc]
+16.5 +14.2 86 +16 +16 1017.0 1014.3
06 21.06 Ю 3 40 км 8/5 600 м
[Cu Sc Ci sp]
+25.2 +15.4 55 +28 +31 жарко 1018.2 1015.5 +18.2 +32.6
09 21.06 ЮЗ 6 40 км 9/6 600 м
[Cu Sc Ac trans Ci sp]
+30.2 +16.6 44 +34 +35 очень
душно
1016.8 1014.1
12 21.06 З 6 30 км 9/5 600 м
[Cu Sc Ci sp]
+29.4 +17.0 47 +33 +34 душно 1015.2 1012.5
15 21.06 Ю 4 30 км 4/4 600 м
[Cu Sc]
+26.4 +17.4 58 +31 +31 душно 1016.0 1013.3 +30.2
03 22.06 Ю 3 30 км 5/5 600 м
[Cu Sc]
+17.8 +14.6 82 +18 +18 1017.2 1014.5
06 22.06 Ю 5 40 км 3/1 600 м
[Cu Sc Ci sp]
+26.2 +15.8 53 +29 +32 жарко 1018.2 1015.5 +19.7 +30.2
03 23.06 ЮВ 2 30 км 4/1 600 м
[Cu Sc Ci sp]
+18.2 +15.2 83 +19 +19 1018.0 1015.3
06 23.06 Ю 4 40 км 5/5 600 м
[]
+26.5 +15.8 52 +30 +32 душно 1019.2 1016.5 +20.2 +30.4
03 24.06 ЮВ 2 30 км 4/4 600 м
[Cu Sc]
+17.6 +14.2 80 +18 +18 1015.0 1012.3
06 24.06 Ю 4 40 км 4/1 600 м
[Cu Sc Ci sp]
+25.8 +15.4 53 +29 +33 душно 1016.2 1013.5 +20.4 +29.6 4
09 24.06 Ю 4 40 км 4/4 600 м
[Cu Sc Ci sp]
+29.2 +16.6 47 +33 +38 очень
душно
1014.8 1012.1
12 24.06 ЮЗ 5 40 км 5/5 600 м
[Cu Sc]
+33.2 +18.7 42 +38 +39 очень
душно
1012.6 1009.9
15 24.06 Ю 4 30 км 3/3 600 м
[Cu Sc]
+26.8 +19.8 66 +33 +33 очень
душно
1013.0 1010.3 +33.2
03 25.06 Ю 3 30 км 4/1 600 м
[Cu Sc Cs]
+19.2 +16.2 83 +21 +21 комфорт 1015.3 1012.6
06 25.06 Ю 4 40 км 1/1 600 м
[Cu Sc Ci sp]
+26.7 +16.8 55 +30 +35 душно 1016.4 1013.7 +21.3 +33.2
09 25.06 ЮЗ 4 40 км 4/4 600 м
[Cu Sc Ci sp]
+30.5 +16.4 43 +34 +39 очень
душно
1014.9 1012.2
12 25.06 ЮЗ 4 40 км 6/5 600 м
[Cu Sc Ci sp]
+31.8 +17.2 42 +36 +37 очень
душно
1013.0 1010.3
15 25.06 Ю 3 30 км 3/3 600 м
[Cu Sc]
+28.3 +17.4 52 +32 +32 душно 1013.7 1011.0 +31.8

 

Местоположение метеостанции Анцухихи (Мадагаскар): широта -14.88 долгота 47.98 высота над уровнем моря 23 м.

В архиве по умолчанию представлена погода в Анцухихи за последнюю неделю. Архивные данные за месяц целиком и за предыдущие месяцы, начиная с января 2011 года, Вы можете получить, выбрав интересующий диапазон дат из раскрывающегося списка и нажав кнопку "Ввод!".


*Определитесь, кто Вы:
робот инопланетянин человек

Внимание! Время в таблицах - всемирное. Для получения местного времени необходимо прибавить поправку, которая равна 3 ч.

Смотрите также архив погоды в соседних городах и на ближайших метеорологических станциях:

Погода в Аэропорту Fascene (Мадагаскар) (178 км)
Погода в Махадзанге (Мадагаскар) (195 км)
Погода в Анталахе (Мадагаскар) (244 км)
Погода в Самбаве (Мадагаскар) (245 км)
Погода в Амбоайтзилаозане (Мадагаскар) (311 км)
Погода на Нуси Бураха (Мадагаскар) (314 км)
Погода в Анциранане (Мадагаскар) (316 км)
Погода в Дзаудзи (Коморские Острова) (372 км)
Погода на Острове Глорьёз (Реюньон) (385 км)
Погода в Туамасине (Мадагаскар) (390 км)

Пояснения к столбцам:

Ветер - указаны скорость ветра в м/с - средняя за 10 мин, порывы в срок и между сроками (в фигурных скобках) и направление, откуда дует ветер: С - северный, СВ - северо-восточный, В - восточный, ЮВ - юго-восточный, Ю - южный, ЮЗ - юго-западный, З - западный, СЗ - северо-западный.
Видимость - горизонтальная дальность видимости в метрах или километрах. При видимости от 1 до 10 км при отсутствии осадков обычно наблюдается дымка, при ухудшении видимости до 1 км и менее - туман. В сухую погоду видимость может ухудшаться дымом, пылью или мглою.
Явления - указаны атмосферные явления, наблюдавшиеся в срок или в последний час перед сроком; фигурными скобками обозначены явления, наблюдавшиеся между сроками (за 1-3 часа до срока); квадратными скобками обозначены град или гололедные отложения с указанием их диаметра в мм.
Облачность - указаны через наклонную черту общая и нижняя облачность в баллах и высота нижней границы облаков в метрах; квадратными скобками обозначены формы облаков: Ci - перистые, Cs - перисто-слоистые, Cc - перисто-кучевые, Ac - высококучевые, As - высокослоистые, Sc - слоисто-кучевые, Ns - слоисто-дождевые, Cu - кучевые, Cb - кучево-дождевые. Подробнее классификацию облаков см. в Атласе облаков (PDF).
T - Температура воздуха - температура, измеренная на высоте 2 м над землей.
Td - Температура точки росы - температура, при понижении до которой содержащийся в воздухе водяной пар достигнет насыщения.
f - Относительная влажность воздуха - влажноcть воздуха, измеренная на высоте 2 м над землей.
Te - Эффективная температура - температура, которую ощущает одетый по сезону человек в тени. Характеристика душности погоды. При расчете учитывается влияние влажности воздуха и скорости ветра на теплоощущения человека.
Tes - Эффективная температура на солнце - температура, которую ощущает человек, с поправкой на солнечный нагрев. Характеристика знойности погоды. Зависит от высоты солнца над горизонтом, облачности и скорости ветра. Ночью, в пасмурную погоду, а также при ветре 12 м/с и более поправка равна нулю.
P - Атмосферное давление - приведенное к уровню моря атмосферное давление.
Po - Атмосферное давление - измеренное на уровне метеостанции атмосферное давление.
Tmin - Минимальная температура - минимум температуры воздуха на высоте 2 м над землей.
Tmax - Максимальная температура - максимум температуры воздуха на высоте 2 м над землей.
R - Количество осадков - Количество выпавших осадков за период времени, мм. При наведении курсора мыши на число - период времени, за который выпало указанное количество осадков.
R24 - Количество осадков - Количество выпавших осадков за 24 часа, мм.
S - Снежный покров - Высота снежного покрова, см. При наведении курсора мыши на число - состояние снежного покрова и степень покрытия местности в баллах.